Flag Weather past 2 weeks in Aurora, Illinois, U.S.A.

Now
51 °F

Light rain. Fog.


Feels Like: 47 °F
Forecast: 49 / 54 °F
Wind: 10 mph from Southeast

Location: Dupage Airport

Current Time: Nov 23, 2014 at 4:42:06 PM

Latest Report: Nov 23, 2014 at 3:52 PM


Visibility: 3 mi

Pressure: 29.44 "Hg

Humidity: 92%

Dew point: 49 °F

Location of AuroraLocation

Historic Weather in Aurora — Graph

°F

Aurora temperature yesterday

Maximum temperature yesterday: 51 °F (at 10:52 PM)
Minimum temperature yesterday: 32 °F (at 3:52 AM)
Average temperature yesterday: 42 °F

Past Weeks' High & Low Weather Summary

 TemperatureHumidityPressure
High62 °F (Nov 10, 2:52 PM)97% (Nov 22, 5:52 AM)30.48 "Hg (Nov 22, 5:52 AM)
Low6 °F (Nov 21, 5:52 AM)24% (Nov 21, 1:52 PM)29.47 "Hg (Nov 23, 2:52 PM)
Average30 °F68%30.05 "Hg
* Reported Nov 8 2:52 PM — Nov 23 2:52 PM, Aurora, Weather by CustomWeather, © 2014

Note: Actual official high and low records may vary slightly from our data, if they occured in-between our weather recording intervals... More about our weather records

Advertising

Aurora weather history for previous 24 hours

 ConditionsComfort  
Time TempWeatherWind HumidityBarometerVisibility
2:52 PM
Nov 23
51 °FLight rain. Mostly cloudy.12 mph89%29.47 "Hg7 mi
1:52 PM50 °FLight rain. Fog.10 mph93%29.51 "Hg6 mi
12:52 PM50 °FLight rain. Overcast.10 mph89%29.56 "Hg7 mi
11:52 AM51 °FOvercast.13 mph86%29.61 "Hg9 mi
10:52 AM50 °FOvercast.13 mph86%29.67 "Hg9 mi
9:52 AM49 °FLight rain. Mostly cloudy.10 mph86%29.70 "Hg9 mi
8:52 AM49 °FLight rain. Mostly cloudy.13 mph84%29.73 "Hg8 mi
7:52 AM48 °FOvercast.12 mph83%29.74 "Hg10 mi
6:52 AM49 °FMore clouds than sun.12 mph77%29.74 "Hg10 mi
5:52 AM47 °FPassing clouds.10 mph83%29.74 "Hg10 mi
4:52 AM48 °FOvercast.12 mph83%29.75 "Hg9 mi
3:52 AM49 °FMostly cloudy.15 mph86%29.77 "Hg8 mi
2:52 AM49 °FLow clouds.10 mph90%29.79 "Hg7 mi
1:52 AM50 °FLow clouds.10 mph86%29.81 "Hg8 mi
12:52 AM50 °FOvercast.14 mph86%29.82 "Hg8 mi
11:52 PM
Nov 22
50 °FMostly cloudy.13 mph86%29.84 "Hg8 mi
10:52 PM51 °FOvercast.13 mph83%29.84 "Hg8 mi
9:52 PM50 °FOvercast.14 mph86%29.85 "Hg9 mi
8:52 PM50 °FMostly cloudy.17 mph83%29.86 "Hg10 mi
7:52 PM50 °FOvercast.13 mph80%29.86 "Hg10 mi
7:04 PM50 °FMostly cloudy.12 mph83%29.85 "Hg9 mi
6:52 PM50 °FMostly cloudy.13 mph86%29.86 "Hg8 mi
5:52 PM50 °FOvercast.15 mph86%29.86 "Hg8 mi
4:52 PM49 °FOvercast.9 mph86%29.87 "Hg8 mi
Weather by CustomWeather, © 2014

See weather overviewHow to use our weather pages